Home   Weather   Neumünster   Past weeks

Flag for Germany Past Weather in Neumünster, Schleswig-Holstein, Germany — Yesterday and Last 2 Weeks

Now
48 °F

Low clouds.


Feels Like: 45 °F
Forecast: 40 / 46 °F
Wind: 7 mph from West

Location: Itzehoe

Current Time: Feb 20, 2017 at 7:29:16 pm

Latest Report: Feb 20, 2017 at 6:00 pm


Visibility: 2 mi

Pressure: 29.67 "Hg

Humidity: 94%

Dew Point: 46 °F

Location of NeumünsterLocation

Past Weather in Neumünster — Graph

°F

Neumünster Temperature Yesterday

Maximum temperature yesterday: 43 °F (at 5:00 pm)
Minimum temperature yesterday: 38 °F (at 12:00 am)
Average temperature yesterday: 41 °F

High & Low Weather Summary for the Past Weeks

 TemperatureHumidityPressure
High48 °F (Feb 20, 5:00 pm)100% (Feb 17, 11:00 am)30.66 "Hg (Feb 17, 11:00 am)
Low22 °F (Feb 14, 5:00 am)51% (Feb 15, 3:00 pm)29.67 "Hg (Feb 20, 6:00 pm)
Average33 °F82%30.32 "Hg
* Reported Feb 5 6:00 pm — Feb 20 6:00 pm, Neumünster, Weather by CustomWeather, © 2017

Note: Actual official high and low records may vary slightly from our data, if they occured in-between our weather recording intervals... More about our weather records

Advertising

Neumünster Weather History for the Previous 24 Hours

Scroll right to see more
 ConditionsComfort  
Time TempWeatherWind HumidityBarometerVisibility
6:00 pm
Mon, Feb 20
48 °FLow clouds.7 mph94%29.67 "Hg2 mi
5:00 pm48 °FLow clouds.8 mph94%29.68 "Hg6 mi
3:00 pm47 °FLow clouds.7 mph97%29.72 "Hg2 mi
2:00 pm47 °FLow clouds.8 mph97%29.73 "Hg2 mi
12:00 pm46 °FLow clouds.7 mph97%29.78 "Hg2 mi
11:00 am46 °FLow clouds.8 mph97%29.80 "Hg1 mi
9:00 am44 °FLow clouds.6 mph96%29.83 "Hg1 mi
8:00 am44 °FLow clouds.6 mph93%29.85 "Hg2 mi
6:00 am43 °FLow clouds.5 mph94%29.90 "Hg4 mi
5:00 am43 °FLow clouds.6 mph93%29.92 "Hg5 mi
3:00 am42 °FLow clouds.5 mph96%29.97 "Hg5 mi
2:00 am41 °FLow clouds.5 mph96%29.98 "Hg9 mi
12:00 am41 °FLow clouds.5 mph97%30.01 "Hg3 mi
11:00 pm
Sun, Feb 19
41 °FPassing clouds.3 mph99%30.01 "Hg1 mi
9:00 pm42 °FLow clouds.3 mph97%30.02 "Hg2 mi
8:00 pm42 °FLow clouds.3 mph97%30.02 "Hg2 mi
Weather by CustomWeather, © 2017

See weather overviewHow to use our weather pages